Regional Weather Roundup
Issued by NWS Glasgow, MT

Home | Current Version | Previous Version | Text Only | Print | Product List | Glossary On
Versions: 1 2 3 4 5 6 7 8 9 10 11 12 13 14 15 16 17 18 19 20 21 22 23 24 25 26 27 28 29 30 31 32 33 34 35 36 37 38 39 40 41 42 43 44 45 46 47 48 49 50
000
ASUS45 KGGW 180115
RWRGGW
HOURLY REGIONAL WEATHER ROUNDUP FOR NORTHEAST MONTANA
NATIONAL WEATHER SERVICE GLASGOW MONTANA
700 PM MDT THU AUG 17 2017

NOTE: "FAIR" INDICATES FEW OR NO CLOUDS BELOW 12,000 FEET WITH NO
SIGNIFICANT WEATHER AND/OR OBSTRUCTIONS TO VISISBILITY.

NORTHEAST MONTANA


CITY           SKY/WX    TMP DP  RH WIND       PRES   REMARKS
GLASGOW        SUNNY     82  38  20 N10       29.90R
PLENTYWOOD       N/A     74  44  34 N12G20      N/A
WOLF POINT     SUNNY     83  42  23 N7        29.89S
JORDAN           N/A     84  38  19 N8        29.91R
WINNETT          N/A     84  30  14 W14G25      N/A
SIDNEY         CLEAR     79  48  33 N10       29.86S
GLENDIVE       SUNNY     79  46  31 N21       29.89R
MALTA            N/A     85  43  22 W3G14       N/A
SCOBEY           N/A     79  44  28 N6        29.91S

FORT PECK REPORTS


CITY           SKY/WX    TMP DP  RH WIND       PRES   REMARKS
FORT PECK        N/A     84  41  21 NW13        N/A
THE PINES        N/A     82  41  23 NE10G23     N/A

SOUTHEAST MONTANA


CITY           SKY/WX    TMP DP  RH WIND       PRES   REMARKS
BILLINGS       MOSUNNY   83  30  14 NW10      29.98R
MILES CITY     SUNNY     86  31  13 N9        29.89R
BAKER          CLOUDY    78  38  23 NE9       29.93R
LIVINGSTON     SUNNY     80  33  18 NW15      30.06S

CENTRAL MONTANA


CITY           SKY/WX    TMP DP  RH WIND       PRES   REMARKS
HAVRE          SUNNY     83  37  19 NW12G21   29.94S
LEWISTOWN      SUNNY     77  35  21 N8        30.04S
GREAT FALLS    SUNNY     83  35  18 CALM      30.00F
CUT BANK       SUNNY     79  36  21 W13       30.00S
HELENA         SUNNY     84  34  16 W13       30.03R
BUTTE          SUNNY     78  32  18 NW6       30.14F
BOZEMAN        SUNNY     81  36  19 CALM      30.07F

WESTERN MONTANA


CITY           SKY/WX    TMP DP  RH WIND       PRES   REMARKS
MISSOULA       SUNNY     84  39  20 NW12      30.02S
KALISPELL      NOT AVBL

NORTH DAKOTA


CITY           SKY/WX    TMP DP  RH WIND       PRES   REMARKS
WILLISTON      LGT RAIN  74  49  41 N16       29.84F
DICKINSON      CLOUDY    75  45  34 NW8       29.87S
MINOT          MOCLDY    79  53  40 E8        29.81S
BISMARCK       CLOUDY    75  60  59 S6        29.82F

SOUTHERN SASKATCHEWAN


CITY           SKY/WX    TMP DP  RH WIND       PRES   REMARKS
REGINA         MOSUNNY   75  46  35 NW12G18   29.89R
ESTEVAN        MOCLDY    73  55  53 N9        29.87R
SWIFT CURRENT  SUNNY     72  43  35 N8        29.95S




USA.gov is the U.S. government's official web portal to all federal, state and local government web resources and services.